NUSAT-15 (KATHERINE) (46830 NORAD) Tracking and Keplerian Element Data

This shows tracking and keplerian element data for the satellite.

Feedback or suggestion? Click here.




ElementValue
Catalog46830
NameNUSAT-15 (KATHERINE)
Epoch Orbit1071
Epoch Day15.1420998
Epoch Year2021
RAAN92.053
Inclination97.2632
Eccentricity0.0004754
Argument of Perigee5.8883
Mean Anonmoly78.5456
Mean Motion15.32932296
Decay Rate6.48E-06
L11 46830U 20079D 21015.14209980 .00000648 00000-0 22750-4 0 9999
L22 46830 97.2632 92.0530 0004754 5.8883 78.5456 15.32932296 10719

Live tracking and technical data element details for NUSAT-15 (KATHERINE) (NORAD 46830). NUSAT-15 (KATHERINE) can be tracked NOW for your location showing map with azimuth and elevation plus other details from your city location.

Track the satellite on the map from your city or location and see movement details for azimuth, elevation, latitude, longitude, range, height, and movement on the map or in text.







IsCatalogInMostPopularTable: catalog: 46830, numindb: 31
Update: records affected: 1



GetName: 46830 NUSAT-15 (KATHERINE)

Hit Count: updated at: Fri, 15 Jan 2021 23:52:05 GMT